• în România
  • Lista ţărilor
  • Pe 7 zile
  • Temperatura apei
  • Hartă satelitară
  • Meteo pe hartă
  • Widget-uri
  • user-avatar
    Intrare

    Meteo pe oră la Akkaharyu

    Astăzi, 18 Octombrie, Joi

    Timp Temperatura Precipitaţii Vânt Presiune Umiditate
    00:00 +9°C° 0 mm 5 m/s 753 mmHg 92%
    01:00 +9°C° 0 mm 5 m/s 753 mmHg 93%
    02:00 +9°C° 0 mm 5 m/s 753 mmHg 93%
    03:00 +10°C° 0 mm 4 m/s 752 mmHg 93%
    04:00 +10°C° 0 mm 4 m/s 752 mmHg 94%
    05:00 +11°C° 0 mm 4 m/s 752 mmHg 94%
    06:00 +11°C° 0.1 mm 4 m/s 752 mmHg 94%
    07:00 +11°C° 0.1 mm 4 m/s 752 mmHg 94%
    08:00 +11°C° 0 mm 4 m/s 751 mmHg 94%
    09:00 +11°C° 0 mm 4 m/s 751 mmHg 92%
    10:00 +12°C° 0 mm 4 m/s 751 mmHg 89%
    11:00 +12°C° 0 mm 4 m/s 751 mmHg 87%
    12:00 +13°C° 0.1 mm 4 m/s 750 mmHg 87%
    13:00 +13°C° 0.1 mm 4 m/s 750 mmHg 86%
    14:00 +13°C° 0.1 mm 5 m/s 750 mmHg 86%
    15:00 +12°C° 0.8 mm 5 m/s 749 mmHg 87%
    16:00 +12°C° 0.8 mm 5 m/s 749 mmHg 89%
    17:00 +12°C° 0.8 mm 5 m/s 748 mmHg 91%
    18:00 +10°C° 0.7 mm 5 m/s 748 mmHg 90%
    19:00 +10°C° 0.7 mm 5 m/s 748 mmHg 89%
    20:00 +10°C° 0.7 mm 5 m/s 748 mmHg 88%
    21:00 +9°C° 0.1 mm 5 m/s 749 mmHg 86%
    22:00 +8°C° 0.1 mm 5 m/s 749 mmHg 84%
    23:00 +8°C° 0.1 mm 6 m/s 750 mmHg 83%

    Mâine, 19 Octombrie, Vineri

    Timp Temperatura Precipitaţii Vânt Presiune Umiditate
    00:00 +7°C° 0 mm 5 m/s 750 mmHg 82%
    01:00 +6°C° 0 mm 5 m/s 750 mmHg 82%
    02:00 +6°C° 0 mm 5 m/s 751 mmHg 81%
    03:00 +5°C° 0 mm 5 m/s 751 mmHg 82%
    04:00 +5°C° 0 mm 5 m/s 751 mmHg 83%
    05:00 +5°C° 0 mm 5 m/s 751 mmHg 84%
    06:00 +5°C° 0 mm 5 m/s 752 mmHg 83%
    07:00 +5°C° 0 mm 5 m/s 752 mmHg 83%
    08:00 +5°C° 0 mm 5 m/s 752 mmHg 83%
    09:00 +6°C° 0 mm 5 m/s 752 mmHg 80%
    10:00 +5°C° 0 mm 6 m/s 752 mmHg 77%
    11:00 +7°C° 0 mm 6 m/s 752 mmHg 75%
    12:00 +7°C° 0 mm 6 m/s 752 mmHg 74%
    13:00 +7°C° 0 mm 6 m/s 752 mmHg 73%
    14:00 +7°C° 0 mm 6 m/s 752 mmHg 72%
    15:00 +7°C° 0 mm 6 m/s 752 mmHg 73%
    16:00 +7°C° 0 mm 5 m/s 752 mmHg 75%
    17:00 +6°C° 0 mm 5 m/s 753 mmHg 77%
    18:00 +6°C° 0 mm 5 m/s 753 mmHg 77%
    19:00 +6°C° 0 mm 5 m/s 753 mmHg 78%
    20:00 +6°C° 0 mm 5 m/s 753 mmHg 79%
    21:00 +5°C° 0 mm 5 m/s 753 mmHg 80%
    22:00 +5°C° 0 mm 4 m/s 753 mmHg 82%
    23:00 +5°C° 0 mm 4 m/s 753 mmHg 83%

    Poimâine, 20 Octombrie, Sâmbătă

    Timp Temperatura Precipitaţii Vânt Presiune Umiditate
    00:00 +4°C° 0 mm 4 m/s 753 mmHg 84%
    01:00 +4°C° 0 mm 4 m/s 754 mmHg 85%
    02:00 +4°C° 0 mm 4 m/s 754 mmHg 87%
    03:00 +4°C° 0 mm 4 m/s 754 mmHg 87%
    04:00 +4°C° 0 mm 3 m/s 754 mmHg 88%
    05:00 +4°C° 0 mm 3 m/s 754 mmHg 89%
    06:00 +4°C° 0 mm 3 m/s 754 mmHg 89%
    07:00 +4°C° 0 mm 3 m/s 754 mmHg 89%
    08:00 +4°C° 0 mm 3 m/s 754 mmHg 89%
    09:00 +6°C° 0 mm 2 m/s 754 mmHg 87%
    10:00 +6°C° 0 mm 2 m/s 754 mmHg 85%
    11:00 +7°C° 0 mm 2 m/s 754 mmHg 83%
    12:00 +7°C° 0.1 mm 2 m/s 754 mmHg 83%
    13:00 +7°C° 0.1 mm 2 m/s 754 mmHg 82%
    14:00 +7°C° 0.1 mm 2 m/s 754 mmHg 81%
    15:00 +7°C° 0.1 mm 2 m/s 754 mmHg 84%
    16:00 +8°C° 0.1 mm 1 m/s 754 mmHg 87%
    17:00 +7°C° 0.1 mm 1 m/s 754 mmHg 90%
    18:00 +7°C° 0.1 mm 1 m/s 754 mmHg 91%
    19:00 +7°C° 0.1 mm 1 m/s 754 mmHg 92%
    20:00 +6°C° 0.1 mm 0 m/s 754 mmHg 93%
    21:00 +6°C° 0 mm 0 m/s 755 mmHg 93%
    22:00 +7°C° 0 mm 1 m/s 755 mmHg 94%
    23:00 +6°C° 0 mm 1 m/s 755 mmHg 94%

    21 Octombrie, Duminică

    Timp Temperatura Precipitaţii Vânt Presiune Umiditate
    00:00 +6°C° 0 mm 1 m/s 755 mmHg 94%
    01:00 +6°C° 0 mm 1 m/s 755 mmHg 95%
    02:00 +5°C° 0 mm 1 m/s 755 mmHg 95%
    03:00 +5°C° 0 mm 1 m/s 756 mmHg 95%
    04:00 +5°C° 0 mm 1 m/s 756 mmHg 95%
    05:00 +4°C° 0 mm 0 m/s 756 mmHg 95%
    06:00 +4°C° 0 mm 0 m/s 756 mmHg 95%
    07:00 +5°C° 0 mm 1 m/s 756 mmHg 95%
    08:00 +5°C° 0 mm 1 m/s 756 mmHg 95%
    09:00 +6°C° 0 mm 1 m/s 756 mmHg 91%
    10:00 +7°C° 0 mm 1 m/s 756 mmHg 87%
    11:00 +7°C° 0 mm 2 m/s 756 mmHg 83%
    12:00 +8°C° 0 mm 2 m/s 756 mmHg 81%
    13:00 +8°C° 0 mm 3 m/s 756 mmHg 80%
    14:00 +7°C° 0 mm 4 m/s 755 mmHg 78%
    15:00 +7°C° 0 mm 4 m/s 755 mmHg 80%
    16:00 +7°C° 0 mm 5 m/s 755 mmHg 81%
    17:00 +7°C° 0 mm 5 m/s 755 mmHg 83%
    18:00 +6°C° 0 mm 5 m/s 754 mmHg 83%
    19:00 +6°C° 0 mm 5 m/s 754 mmHg 84%
    20:00 +5°C° 0 mm 6 m/s 753 mmHg 85%
    21:00 +5°C° 0.3 mm 6 m/s 752 mmHg 85%
    22:00 +7°C° 0.3 mm 6 m/s 752 mmHg 85%
    23:00 +6°C° 0.3 mm 7 m/s 751 mmHg 85%

    22 Octombrie, Luni

    Timp Temperatura Precipitaţii Vânt Presiune Umiditate
    00:00 +6°C° 0.5 mm 7 m/s 750 mmHg 84%
    01:00 +6°C° 0.5 mm 8 m/s 749 mmHg 82%
    02:00 +6°C° 0.5 mm 9 m/s 747 mmHg 80%
    03:00 +6°C° 0.4 mm 9 m/s 746 mmHg 81%
    04:00 +7°C° 0.4 mm 10 m/s 745 mmHg 82%
    05:00 +7°C° 0.4 mm 10 m/s 743 mmHg 83%
    06:00 +7°C° 0.7 mm 10 m/s 742 mmHg 84%
    07:00 +8°C° 0.7 mm 10 m/s 741 mmHg 84%
    08:00 +9°C° 0.7 mm 10 m/s 740 mmHg 85%
    09:00 +9°C° 0.5 mm 10 m/s 740 mmHg 79%
    10:00 +9°C° 0.5 mm 10 m/s 739 mmHg 73%
    11:00 +10°C° 0.5 mm 9 m/s 739 mmHg 67%
    12:00 +8°C° 0.1 mm 9 m/s 739 mmHg 68%
    13:00 +7°C° 0.1 mm 8 m/s 740 mmHg 69%
    14:00 +6°C° 0.1 mm 8 m/s 740 mmHg 70%
    15:00 +6°C° 0.3 mm 7 m/s 741 mmHg 74%
    16:00 +5°C° 0.3 mm 7 m/s 741 mmHg 77%
    17:00 +5°C° 0.3 mm 6 m/s 742 mmHg 80%
    18:00 +4°C° 1 mm 7 m/s 743 mmHg 78%
    19:00 +4°C° 1 mm 7 m/s 743 mmHg 75%
    20:00 +4°C° 1 mm 8 m/s 743 mmHg 73%
    21:00 +3°C° 0.1 mm 7 m/s 744 mmHg 74%
    22:00 +3°C° 0.1 mm 6 m/s 744 mmHg 74%
    23:00 +3°C° 0.1 mm 6 m/s 744 mmHg 75%

    23 Octombrie, Marţi

    Timp Temperatura Precipitaţii Vânt Presiune Umiditate
    00:00 +2°C° 0 mm 5 m/s 744 mmHg 76%
    01:00 +2°C° 0 mm 5 m/s 744 mmHg 78%
    02:00 +2°C° 0 mm 5 m/s 744 mmHg 79%
    03:00 +3°C° 0 mm 4 m/s 744 mmHg 80%
    04:00 +1°C° 0 mm 4 m/s 745 mmHg 81%
    05:00 +1°C° 0 mm 4 m/s 745 mmHg 82%
    06:00 +1°C° 0 mm 4 m/s 745 mmHg 83%
    07:00 +2°C° 0 mm 3 m/s 745 mmHg 83%
    08:00 +2°C° 0 mm 3 m/s 745 mmHg 84%
    09:00 +3°C° 0 mm 3 m/s 745 mmHg 80%
    10:00 +4°C° 0 mm 3 m/s 746 mmHg 77%
    11:00 +4°C° 0 mm 3 m/s 746 mmHg 73%
    12:00 +5°C° 0 mm 3 m/s 746 mmHg 72%
    13:00 +5°C° 0 mm 3 m/s 746 mmHg 70%
    14:00 +5°C° 0 mm 3 m/s 746 mmHg 69%
    15:00 +4°C° 0 mm 3 m/s 746 mmHg 72%
    16:00 +4°C° 0 mm 3 m/s 746 mmHg 76%
    17:00 +3°C° 0 mm 3 m/s 746 mmHg 79%
    18:00 +3°C° 0 mm 3 m/s 746 mmHg 79%
    19:00 +3°C° 0 mm 3 m/s 746 mmHg 80%
    20:00 +3°C° 0 mm 3 m/s 746 mmHg 80%
    21:00 +3°C° 0.1 mm 3 m/s 745 mmHg 80%
    22:00 +3°C° 0.1 mm 3 m/s 745 mmHg 80%
    23:00 +3°C° 0.1 mm 3 m/s 745 mmHg 81%
    Arată mai mult